Pardubice, Czech Republic

12:33 AM CEST on March 27, 2017 (GMT +0200)
Pardubice

Weather History for LKPD - November, 2013

Change the Weather History Date:

Friday, November 8, 2013

  Actual Average Record
Temperature  
Mean Temperature 56 °F -  
Max Temperature 62 °F - - ()
Min Temperature 51 °F - - ()
Degree Days  
Heating Degree Days 8    
Growing Degree Days 6 (Base 50)    
Moisture  
Dew Point 48 °F    
Average Humidity 73    
Maximum Humidity 94    
Minimum Humidity 59    
Precipitation  
Precipitation 0.00 in - - ()
Sea Level Pressure  
Sea Level Pressure 29.86 in    
Wind  
Wind Speed 6 mph ()    
Max Wind Speed 14 mph    
Max Gust Speed 24 mph    
Visibility 6.2 miles    
Events Rain    
T = Trace of Precipitation, MM = Missing Value Source: Averaged Metar Reports

Daily Weather History Graph

Daily Weather History Graph

Search for Another Location

Airport or City:

Trip Planner

Search our weather history database for the weather conditions in past years. The results will help you decide how hot, cold, wet, or windy it might be!

Date:

Astronomy

Nov. 08, 2013 Rise Set
Actual Time 6:58 AM CET 4:22 PM CET
Civil Twilight 6:23 AM CET 4:57 PM CET
Nautical Twilight 5:44 AM CET 5:36 PM CET
Astronomical Twilight 5:07 AM CET 6:13 PM CET
Moon 11:43 AM CET (11/8) 9:22 PM CET (11/8)
Length of Visible Light 10h 33m
Length of Day
9h 24m
Waxing Crescent, 30% of the Moon is Illuminated
Nov 8
Waxing Crescent
Nov 10
First Quarter
Nov 17
Full
Nov 25
Last Quarter
Dec 3
New

Hourly Weather History & Observations

Time (CET) Temp. Dew Point Humidity Pressure Visibility Wind Dir Wind Speed Gust Speed Precip Events Conditions
12:00 AM 55.4 °F 44.6 °F 67% 29.89 in - SW 5.8 mph - N/A   Clear
1:00 AM 51.8 °F 44.6 °F 76% 29.89 in - SW 6.9 mph - N/A   Clear
2:00 AM 53.6 °F 44.6 °F 72% 29.89 in - SSW 4.6 mph - N/A   Clear
3:00 AM 53.6 °F 44.6 °F 72% 29.89 in - SW 8.1 mph - N/A   Clear
4:00 AM 53.6 °F 46.4 °F 77% 29.86 in - Variable 2.3 mph - N/A   Clear
5:00 AM 55.4 °F 46.4 °F 72% 29.86 in - SW 6.9 mph - N/A   Clear
6:00 AM 55.4 °F 44.6 °F 67% 29.86 in - SSW 6.9 mph - N/A   Clear
7:00 AM 55.4 °F 46.4 °F 72% 29.86 in - SSW 10.4 mph - N/A   Clear
8:00 AM 55.4 °F 46.4 °F 72% 29.86 in - SSW 11.5 mph - N/A   Clear
9:00 AM 57.2 °F 46.4 °F 67% 29.89 in - SSW 12.7 mph - N/A   Clear
10:00 AM 59.0 °F 48.2 °F 67% 29.89 in - SSW 11.5 mph - N/A   Clear
11:00 AM 60.8 °F 46.4 °F 59% 29.86 in - SSW 9.2 mph - N/A   Clear
12:00 PM 62.6 °F 48.2 °F 59% 29.86 in - WSW 13.8 mph 24.2 mph N/A   Clear
1:00 PM 62.6 °F 50.0 °F 63% 29.86 in 6.2 mi WSW 9.2 mph - N/A   Mostly Cloudy
2:00 PM 62.6 °F 48.2 °F 59% 29.86 in - West 5.8 mph - N/A   Clear
2:28 PM 62.6 °F 50.0 °F 63% 29.86 in - WSW 5.8 mph - N/A   Clear
3:00 PM 62.6 °F 48.2 °F 59% 29.86 in - WSW 5.8 mph - N/A   Clear
4:00 PM 59.0 °F 51.8 °F 77% 29.86 in - South 4.6 mph - N/A   Clear
5:00 PM 57.2 °F 51.8 °F 82% 29.86 in - Variable 2.3 mph - N/A   Clear
6:00 PM 57.2 °F 50.0 °F 77% 29.86 in - South 4.6 mph - N/A   Clear
7:00 PM 55.4 °F 51.8 °F 88% 29.86 in 6.2 mi Variable 1.2 mph - N/A Rain Light Rain
8:00 PM 53.6 °F 51.8 °F 94% 29.86 in - South 2.3 mph - N/A   Clear
9:00 PM 53.6 °F 50.0 °F 88% 29.86 in - Variable 2.3 mph - N/A   Clear
10:00 PM 53.6 °F 48.2 °F 82% 29.83 in - ESE 3.5 mph - N/A   Clear
11:00 PM 53.6 °F 48.2 °F 82% 29.80 in - ESE 5.8 mph - N/A   Clear